Weather History for Mazatlan Airport, Mexico

Change the Weather History Date:

Wednesday, December 19, 2012

  Actual Average Record
Temperature  
Mean Temperature 68 °F -  
Max Temperature 78 °F 79 °F 86 °F (2003)
Min Temperature 59 °F 53 °F 48 °F (2011)
Cooling Degree Days 4    
Growing Degree Days 18 (Base 50)    
Moisture  
Dew Point 60 °F    
Average Humidity 79    
Maximum Humidity 94    
Minimum Humidity 57    
Precipitation  
Precipitation 0.00 in - - ()
Sea Level Pressure  
Sea Level Pressure 29.91 in    
Wind  
Wind Speed 7 mph ()    
Max Wind Speed 15 mph    
Max Gust Speed -    
Visibility 10.2 miles    
Events      
Averages and records for this station are not official NWS values.
T = Trace of Precipitation, MM = Missing Value Source: Averaged Metar Reports

Daily Weather History Graph

Daily Weather History Graph

Search for Another Location

Airport:

Trip Planner

Search our weather history database for the weather conditions in past years. The results will help you decide how hot, cold, wet, or windy it might be!

Date:

Astronomy

Dec. 19, 2012 Rise Set
Actual Time 6:41 AM MST 5:23 PM MST
Civil Twilight 6:16 AM MST 5:48 PM MST
Nautical Twilight 5:48 AM MST 6:16 PM MST
Astronomical Twilight 5:20 AM MST 6:44 PM MST
Moon 11:35 AM MST (12/19) No Moon Set
Length of Visible Light 11h 32m
Length of Day
10h 42m
Waxing Crescent, 45% of the Moon is Illuminated
Dec 19
Waxing Crescent
Dec 19
First Quarter
Dec 28
Full
Jan 4
Last Quarter
Jan 11
New

Hourly Weather History & Observations

Time (MST) Temp. Dew Point Humidity Pressure Visibility Wind Dir Wind Speed Gust Speed Precip Events Conditions
12:52 AM 60.8 °F 57.2 °F 88% 29.91 in 6.0 mi North 8.1 mph - N/A   Clear
1:44 AM 60.8 °F 59.0 °F 94% 29.90 in 6.0 mi North 8.1 mph - N/A   Clear
2:42 AM 62.6 °F 60.8 °F 94% 29.89 in 8.0 mi North 8.1 mph - N/A   Mostly Cloudy
3:51 AM 62.6 °F 60.8 °F 94% 29.88 in 8.0 mi North 8.1 mph - N/A   Mostly Cloudy
4:45 AM 60.8 °F 59.0 °F 94% 29.88 in 8.0 mi North 5.8 mph - N/A   Scattered Clouds
5:42 AM 59.0 °F 57.2 °F 94% 29.89 in 8.0 mi Calm Calm - N/A   Scattered Clouds
6:46 AM 59.0 °F 55.4 °F 88% 29.91 in 10.0 mi NE 6.9 mph - N/A   Scattered Clouds
7:42 AM 62.6 °F 60.8 °F 94% 29.93 in 10.0 mi North 9.2 mph - N/A   Mostly Cloudy
8:45 AM 68.0 °F 64.4 °F 88% 29.97 in 12.0 mi NNW 5.8 mph - N/A   Partly Cloudy
9:43 AM 75.2 °F 64.4 °F 69% 29.97 in 12.0 mi West 10.4 mph - N/A   Mostly Cloudy
10:45 AM 77.0 °F 64.4 °F 65% 29.94 in 12.0 mi WNW 8.1 mph - N/A   Clear
11:51 AM 78.8 °F 64.4 °F 61% 29.91 in 12.0 mi WSW 11.5 mph - N/A   Clear
12:40 PM 78.8 °F 62.6 °F 57% 29.90 in 12.0 mi WSW 11.5 mph - N/A   Partly Cloudy
1:52 PM 78.8 °F 62.6 °F 57% 29.88 in 12.0 mi WSW 13.8 mph - N/A   Scattered Clouds
2:43 PM 78.8 °F 62.6 °F 57% 29.88 in 14.0 mi WSW 15.0 mph - N/A   Partly Cloudy
3:41 PM 77.0 °F 62.6 °F 61% 29.87 in 14.0 mi WSW 12.7 mph - N/A   Clear
4:45 PM 73.4 °F 60.8 °F 65% 29.87 in 12.0 mi WSW 10.4 mph - N/A   Scattered Clouds
5:42 PM 69.8 °F 62.6 °F 78% 29.89 in 10.0 mi West 8.1 mph - N/A   Mostly Cloudy
6:40 PM 68.0 °F 60.8 °F 78% 29.91 in 10.0 mi West 8.1 mph - N/A   Mostly Cloudy
7:40 PM 66.2 °F 60.8 °F 83% 29.92 in 10.0 mi NW 6.9 mph - N/A   Mostly Cloudy
8:43 PM 62.6 °F 57.2 °F 82% 29.93 in 10.0 mi NNE 6.9 mph - N/A   Mostly Cloudy
9:41 PM 60.8 °F 57.2 °F 88% 29.94 in 10.0 mi Calm Calm - N/A   Clear
10:45 PM 60.8 °F 57.2 °F 88% 29.94 in 10.0 mi North 6.9 mph - N/A   Partly Cloudy
11:42 PM 60.8 °F 57.2 °F 88% 29.94 in 10.0 mi North 8.1 mph - N/A   Partly Cloudy